TimeCST,TemperatureF,Dew PointF,Humidity,Sea Level PressureIn,VisibilityMPH,Wind Direction,Wind SpeedMPH,Gust SpeedMPH,PrecipitationIn,Events,Conditions,WindDirDegrees,DateUTC
12:54 AM,30.9,26.1,82,30.13,10.0,East,3.5,-,N/A,,Overcast,90,2012-12-28 06:54:00
1:54 AM,32.0,26.1,79,30.12,10.0,East,4.6,-,N/A,,Overcast,100,2012-12-28 07:54:00
2:54 AM,32.0,26.1,79,30.12,10.0,Calm,Calm,-,N/A,,Overcast,0,2012-12-28 08:54:00
3:54 AM,30.0,26.1,85,30.10,10.0,ENE,3.5,-,N/A,,Overcast,70,2012-12-28 09:54:00
4:54 AM,30.9,26.1,82,30.08,10.0,Calm,Calm,-,N/A,,Overcast,0,2012-12-28 10:54:00
5:54 AM,30.9,26.1,82,30.13,10.0,SW,3.5,-,N/A,,Overcast,230,2012-12-28 11:54:00
6:54 AM,32.0,26.1,79,30.12,10.0,Calm,Calm,-,N/A,,Overcast,0,2012-12-28 12:54:00
7:54 AM,30.9,27.0,85,30.12,7.0,NE,4.6,-,N/A,,Haze,50,2012-12-28 13:54:00
8:54 AM,32.0,27.0,82,30.12,9.0,East,4.6,-,N/A,,Overcast,90,2012-12-28 14:54:00
9:54 AM,33.1,27.0,78,30.11,6.0,ESE,3.5,-,N/A,,Haze,110,2012-12-28 15:54:00
10:54 AM,34.0,27.0,75,30.06,7.0,ESE,10.4,-,N/A,,Haze,110,2012-12-28 16:54:00
11:54 AM,35.6,28.4,75,30.02,7.0,East,6.9,-,N/A,,Haze,100,2012-12-28 17:54:00
12:16 PM,35.6,28.4,75,30.01,7.0,ESE,3.5,-,N/A,,Haze,120,2012-12-28 18:16:00
12:54 PM,36.0,28.0,73,29.99,7.0,SE,3.5,-,N/A,,Haze,130,2012-12-28 18:54:00
1:32 PM,35.6,28.4,75,29.96,7.0,ESE,4.6,-,N/A,,Haze,110,2012-12-28 19:32:00
1:54 PM,36.0,28.9,76,29.97,7.0,East,3.5,-,N/A,,Haze,90,2012-12-28 19:54:00
2:25 PM,35.6,28.4,75,29.95,6.0,ESE,4.6,-,N/A,,Haze,120,2012-12-28 20:25:00
2:47 PM,35.6,28.4,75,29.94,10.0,Calm,Calm,-,N/A,,Overcast,0,2012-12-28 20:47:00
2:54 PM,36.0,28.9,76,29.96,10.0,Calm,Calm,-,N/A,,Overcast,0,2012-12-28 20:54:00
3:16 PM,35.6,28.4,75,29.94,10.0,Calm,Calm,-,N/A,,Overcast,0,2012-12-28 21:16:00
3:30 PM,35.6,28.4,75,29.94,10.0,Calm,Calm,-,N/A,,Overcast,0,2012-12-28 21:30:00
3:50 PM,35.6,28.4,75,29.93,10.0,Calm,Calm,-,N/A,,Overcast,0,2012-12-28 21:50:00
3:54 PM,35.1,28.9,78,29.94,6.0,NE,3.5,-,N/A,,Haze,50,2012-12-28 21:54:00
4:10 PM,35.6,28.4,75,29.93,6.0,Calm,Calm,-,N/A,,Haze,0,2012-12-28 22:10:00
4:54 PM,35.1,28.9,78,29.91,6.0,NE,8.1,-,N/A,,Haze,50,2012-12-28 22:54:00
5:54 PM,35.1,28.9,78,29.91,10.0,NE,8.1,-,0.00,Rain,Light Rain,50,2012-12-28 23:54:00
6:54 PM,34.0,30.0,85,29.88,3.0,NE,8.1,-,0.01,Snow,Light Snow,40,2012-12-29 00:54:00
7:01 PM,33.8,30.2,87,29.87,2.5,NE,9.2,-,0.01,Snow,Light Snow,40,2012-12-29 01:01:00
7:31 PM,33.8,30.2,87,29.89,2.0,NE,4.6,-,0.04,Snow,Light Snow,40,2012-12-29 01:31:00
7:38 PM,33.8,30.2,87,29.88,1.5,NE,5.8,-,0.05,Snow,Light Snow,40,2012-12-29 01:38:00
7:46 PM,33.8,30.2,87,29.87,1.2,NNE,6.9,-,0.06,Snow,Light Snow,20,2012-12-29 01:46:00
7:54 PM,33.1,30.0,89,29.88,0.5,NNE,6.9,-,0.07,Snow,Snow,30,2012-12-29 01:54:00
7:57 PM,33.8,30.2,87,29.87,1.0,NNE,5.8,-,0.01,Snow,Light Snow,30,2012-12-29 01:57:00
8:19 PM,33.8,30.2,87,29.87,1.5,NE,4.6,-,0.05,Snow,Light Snow,50,2012-12-29 02:19:00
8:39 PM,33.8,30.2,87,29.87,1.2,NE,3.5,-,0.07,Snow,Light Snow,50,2012-12-29 02:39:00
8:54 PM,33.1,30.9,92,29.85,0.5,NE,8.1,-,0.10,Snow,Snow,50,2012-12-29 02:54:00
9:01 PM,33.8,30.2,87,29.84,1.0,NE,6.9,-,0.01,Snow,Light Snow,50,2012-12-29 03:01:00
9:16 PM,33.8,30.2,87,29.83,1.5,NE,9.2,-,0.02,Snow,Light Snow,40,2012-12-29 03:16:00
9:29 PM,33.8,30.2,87,29.82,2.5,NE,9.2,-,0.03,Snow,Light Snow,40,2012-12-29 03:29:00
9:51 PM,33.8,30.2,87,29.81,1.5,NE,9.2,-,0.04,Snow,Light Snow,50,2012-12-29 03:51:00
9:54 PM,33.1,30.9,92,29.82,1.5,NNE,8.1,-,0.04,Snow,Light Snow,30,2012-12-29 03:54:00
10:08 PM,33.8,30.2,87,29.83,2.0,North,5.8,-,0.01,Snow,Light Snow,350,2012-12-29 04:08:00
10:25 PM,33.8,30.2,87,29.84,0.5,NNW,4.6,-,0.03,Snow,Snow,330,2012-12-29 04:25:00
10:43 PM,33.8,30.2,87,29.84,0.5,NW,3.5,-,0.06,Snow,Snow,320,2012-12-29 04:43:00
10:54 PM,33.1,30.9,92,29.83,0.5,NNW,6.9,-,0.08,Snow,Snow,340,2012-12-29 04:54:00
11:01 PM,33.8,30.2,87,29.82,1.5,NNW,4.6,-,0.01,Snow,Light Snow,340,2012-12-29 05:01:00
11:13 PM,33.8,30.2,87,29.82,1.5,North,8.1,-,0.02,Snow,Light Snow,350,2012-12-29 05:13:00
11:37 PM,33.8,30.2,87,29.81,1.2,North,5.8,-,0.04,Snow,Light Snow,360,2012-12-29 05:37:00
11:54 PM,33.1,30.9,92,29.82,1.8,North,4.6,-,0.06,Snow,Light Snow,350,2012-12-29 05:54:00